THOR ABLESTAR DEB, 541

Orbit data source: Space-Track

THOR ABLESTAR DEB, 541 is space debris in LEO originally from a launch on Thu, 29 Jun 1961 UTC launched from the Air Force Eastern Test Range (AFETR). Debris objects in space refer to the collection of defunct objects orbiting the Earth. Examples of debris include non-operational satellites, rocket bodies, and fragments generated from explosions, collisions, or faulty payload assembly.

Loading next visibility...
Identifier
541, 1961-015GA
Orbit
LEO
Country
Flag of USUS
Related business
Manufacturer
Unknown
Mission
Spacecraft
Bus & Motor
Unknown
Mass
Unknown
Launch date (UTC)
1961-06-29 (65 years ago)
Launch vehicle
Unknown
Launch site
Air Force Eastern Test Range (AFETR)
Object type
Payload
Rocket body
Debris
Shape & HBR
Unknown shape, 0.1 m
Radar Cross Section
Small (<0.1 m²)

Expand to show TLE details & history
Last TLE update: 6 hours ago

TLE from 6 hours ago
0 THOR ABLESTAR DEB
1 00541U 61015GA  26127.27254830  .00000176  00000-0  20953-3 0  9998
2 00541  67.2163 141.0873 0082267 303.8881  55.4392 13.86367068266658
Epoch: 2026-05-07T06:32Z
TLE epoch observation values (Epoch: 2026-05-07T06:32:28.173Z)
Latitude
0.00001°
Longitude
177.84885°
Altitude
909.669 km
Speed
7.415 km/s
True Right ascension
09h 24m 20s
True Declination
0° 00' 00"
Sunlit
Object was in daylight at epoch
Visualization orbit readout
Latitude
Unknown
Longitude
Unknown
Altitude
Unknown
Speed
Unknown
Apparent Right ascension
Unknown
Apparent Declination
Unknown
Sunlit
N/A
Visualization observer readout
Local Sidereal Time
20:05:45
Azimuth
Unknown
Elevation
Unknown
Doppler factor
Unknown
Orbital elements
Apogee altitude
999.942 km
Perigee altitude
879.538 km
Semi-major axis
7,317.877 km
Eccentricity
0.00823
Inclination
67.2163°
RAAN
141.0873°
Arg. of periapsis
303.8881°
True anomaly
56.22008°
Mean anomaly
55.4392°
Eccentric anomaly
55.82918°
Mean motion
3.46709 °/min
Orbital period
103.83 mins
BSTAR
0.00020953
Loading maneuver chart data...
Computing Atmospheric mass density...

Documentation

Showing up to 5 results
|